Showing default

GALILEO 13 (26A), 41550

Orbit data source: Space-Track

GALILEO 13 (26A), 41550 is a payload satellite owned by GNSS Agency (ESA) that was launched on Tue, 24 May 2016 UTC via a SOYUZ-ST-B launch vehicle from the French Guiana (FRGUI). Payloads include a variety of satellites, spacecraft, and rockets equipped with specific instruments for various scientific and technological missions. These include communications satellites like Starlink; space stations such as the ISS; scientific satellites like the Hubble; Earth observation satellites from companies like Planet Labs, Umbra, and HawkEye 360; GPS; miniature CubeSats for education and research; and military/defense satellites.

Loading next visibility...
GALILEO 13 (26A) details
Identifier
41550, 2016-030B
Orbit
Active
Last TLE update2 days ago
Origin
Flag of ESAGNSS Agency (ESA)
ManufacturerOHB
MissionOperational Civil Navigation
Bus & MotorGALILEOSAT, AOCS
Mass733 kg wet, 660 kg dry
Launch date (UTC)
2016-05-24 (9 years ago)
Launch vehicle
SOYUZ-ST-B
Launch site
French Guiana (FRGUI)
Object type
Payload
Rocket body
Debris
Shape & HBRBox + 2 Pan, 14.71 m
Radar Cross Section9.223 m², Large (>1 m²)

Expand to show TLE details & history

TLE from 2 days ago
0 GALILEO 13 (26A)
1 41550U 16030B   25013.92699580  .00000055  00000-0  00000-0 0  9994
2 41550  55.2741 235.9753 0000569 214.7376 145.3409  1.70473700 53817
Epoch: 2025-01-13T22:14Z
Definitive object data (Epoch: 2025-01-13T22:14:52.437Z)
Latitude-0.00006°
Longitude148.63741°
Altitude23,223.871 km
Speed3.67 km/s
True Right ascension15h 43m 59s
True Declination0° 00' 00"
Sunlit
Object was in daylight at TLE epoch
Visualization TLE readout
Latitude-20.63796°
Longitude133.46551°
Altitude23,228.515 km
Speed3.669 km/s
Apparent Right ascension14h 25m 23s
Apparent Declination-31° 57' 30"
Sunlit
Object is in daylight
Visualization observer readout
Local Sidereal Time16:10:13
Azimuth202.733° SW
Elevation14.134°
Doppler factor1
Orbital elements
Apogee altitude23,223.9 km
Perigee altitude23,220.532 km
Semi-major axis29,600.353 km
Eccentricity0.0000569
Inclination55.2741°
RAAN235.9753°
Arg. of periapsis214.7376°
True anomaly145.34461°
Mean anomaly145.3409°
Eccentric anomaly145.34275°
Mean motion0.42618 °/min
BSTARUnknown
Orbital period844.7 mins
Loading maneuver chart data...
Loading historical data...
Loading historical data...
Loading historical data...
Loading historical data...
Loading historical data...
Loading historical data...
Loading historical data...
Other satellites on launch #30 in the year 2016 (2016-05-24 UTC)

GALILEO 13 (26A) Visibility forecast

Observer location: undefined°, undefined

Span
Click to sort rows by Start time (UTC) header in descending order
Start Az.
Max El. time (UTC)
Max El. Az.
Max El.
End time (UTC)
End Az.
502 mins2025-01-15 15:29:21.875Z202.724° SW2025-01-15 18:56:21.875Z316.503° NNW44.234°2025-01-15 23:51:21.875Z121.481° SE
|